Вернуться в каталог

DMSP 5D-2 F13 DEB

LostSSO
NORAD 42331·DEBRIS·🇺🇸 United States

Запущен Mar 24, 1995 с Vandenberg Space Force Base

Loading…

Ближайшие Пролёты (ближайшие 24 часа)

TLE

УстаревшееSource: Space-Track

Эпоха: Nov 30, 2023, 01:31 UTC

1 42331U 95015JZ  23334.06372258  .00016438  00000-0  55605-2 0  9996
2 42331  98.6886   3.7901 0004633  60.0185 300.1461 14.36877933418151

Отслеживайте DMSP 5D-2 F13 DEB в реальном времени с AllMySat

Download on the App Store